Tracking 17857 objects as of 1-October-2016
HD Live streaming from Space Station
objects crossing your sky now

GORIZONT 30

Track GORIZONT 30 now!
GORIZONT 30 is classified as:


NORAD ID: 23108
Int'l Code: 1994-030A
Perigee: 35,791.8 km
Apogee: 35,856.7 km
Inclination: 14.5 °
Period: 1,437.7 minutes
Semi major axis: 42195 km
RCS: 12.5892 m2 (large)
Launch date: May 20, 1994
Source: Commonwealth of Independent States (former USSR) (CIS)
Launch site: TYURATAM MISSILE AND SPACE COMPLEX (TTMTR)
Your satellite tracking list
Your tracking list is empty





NASA's NSSDC Master Catalog

Two Line Element Set (TLE):
1 23108U 94030A   16274.27328087 -.00000206  00000-0  00000+0 0  9995
2 23108  14.5442  19.2846 0007690 202.3048 157.6716  1.00163076 81924
Source of the keplerian elements: AFSPC

N2YO: 736